Regional Weather Roundup
Issued by NWS

Home | Current Version | Previous Version | Graphics & Text | Print | Product List | Glossary On
Versions: 1 2 3 4 5 6 7 8 9 10 11 12 13 14 15 16 17 18 19 20 21 22 23 24 25 26 27 28 29 30 31 32 33 34 35 36 37 38 39 40 41 42 43 44 45 46 47 48 49 50
000
ASUS43 KFSD 170502
RWRSD

WEATHER ROUNDUP FOR SOUTH DAKOTA
NATIONAL WEATHER SERVICE SIOUX FALLS SD
1100 PM CST FRI FEB 16 2018

NOTE: "FAIR" INDICATES FEW OR NO CLOUDS BELOW 12,000 FEET WITH NO
SIGNIFICANT WEATHER AND/OR OBSTRUCTIONS TO VISIBILITY.


SDZ001>005-009-010-012>017-170600-
NORTHWEST AND NORTH CENTRAL SOUTH DAKOTA

CITY           SKY/WX    TMP DP  RH WIND       PRES   REMARKS
BUFFALO          N/A     23  20  88 W12       29.72F WCI  12
FAITH            N/A     21  13  71 W15       29.83R WCI   8
MOBRIDGE       CLOUDY    26  18  71 NW7       29.81F WCI  18
$$

SDZ012>016-024>037-041>051-057-063-072>074-170600-
SOUTHWEST AND SOUTH CENTRAL SOUTH DAKOTA

CITY           SKY/WX    TMP DP  RH WIND       PRES   REMARKS
RAPID CTY ARPT CLOUDY    29  19  66 NW9       29.82S WCI  20
PIERRE         CLOUDY    22  19  89 S6        29.86R WCI  14
CUSTER         CLOUDY    22   8  55 N3        29.75R
ELLSWORTH AFB  CLOUDY    28  14  57 NW13G29   29.82R WCI  17
PHILIP         CLOUDY    20  16  84 W7        29.84S WCI  11
PINE RIDGE     FLURRIES  31  22  69 NW9       29.83R WCI  23
SPEARFISH        N/A     27  14  59 W6        29.81F WCI  20
WINNER         CLOUDY    31  24  75 N5        29.85F WCI  26
$$

SDZ004>011-016>023-039-040-170600-
NORTHEAST SOUTH DAKOTA

CITY           SKY/WX    TMP DP  RH WIND       PRES   REMARKS
ABERDEEN       CLOUDY    18  15  88 S5        29.86F WCI  11
WATERTOWN      CLOUDY    20  16  84 S9        29.85F WCI   9
BROOKINGS      MOCLDY    22  16  78 S15       29.90F WCI   9
SISSETON         N/A     24  15  68 SW24G32   29.83F WCI   8
$$

SDZ017-020-022-023-036>040-048>070-170600-
SOUTHEAST SOUTH DAKOTA

CITY           SKY/WX    TMP DP  RH WIND       PRES   REMARKS
SIOUX FALLS    CLOUDY    23  16  74 S12       29.95F WCI  12
HURON          CLOUDY    26  20  77 S8        29.88F WCI  18
CHAMBERLAIN    CLOUDY    33  26  75 S9        29.87F WCI  25
MITCHELL       CLOUDY    31  22  69 SW13      29.91F WCI  21
YANKTON        CLOUDY    29  20  69 SW13      29.95F WCI  19
$$

ABBREVIATIONS USED IN REMARKS
   TC - TEMPERATURE IN CELSIUS
  WCI - WIND CHILL INDEX
   HX - HEAT INDEX
  VSB - VISIBILITY





USA.gov is the U.S. government's official web portal to all federal, state and local government web resources and services.